Change the Weather History Date:

Sunday, March 30, 2014

  Actual Average Record
Temperature  
Mean Temperature 56 °F -  
Max Temperature 72 °F - - ()
Min Temperature 43 °F - - ()
Degree Days  
Heating Degree Days 8    
Growing Degree Days 6 (Base 50)    
Moisture  
Dew Point 38 °F    
Average Humidity 56    
Maximum Humidity 86    
Minimum Humidity 26    
Precipitation  
Precipitation 0.00 in - - ()
Sea Level Pressure  
Sea Level Pressure 30.16 in    
Wind  
Wind Speed 8 mph (NNW)    
Max Wind Speed 14 mph    
Max Gust Speed 21 mph    
Visibility 10 miles    
Events Rain    
T = Trace of Precipitation, MM = Missing Value Source: NWS Daily Summary

Daily Weather History Graph

Daily Weather History Graph

Search for Another Location

Airport or City:

Trip Planner

Search our weather history database for the weather conditions in past years. The results will help you decide how hot, cold, wet, or windy it might be!

Date:

Astronomy

Mar. 30, 2014 Rise Set
Actual Time 6:37 AM CDT 7:03 PM CDT
Civil Twilight 6:13 AM CDT 7:28 PM CDT
Nautical Twilight 5:45 AM CDT 7:56 PM CDT
Astronomical Twilight 5:16 AM CDT 8:25 PM CDT
Moon 6:22 AM CDT (3/30) 7:13 PM CDT (3/30)
Length of Visible Light 13h 14m
Length of Day
12h 26m
Waning Crescent, 0% of the Moon is Illuminated
Mar 30
Waning Crescent
Mar 30
New
Apr 7
First Quarter
Apr 15
Full
Apr 22
Last Quarter

Hourly Weather History & Observations

Time (CDT) Temp. Windchill Dew Point Humidity Pressure Visibility Wind Dir Wind Speed Gust Speed Precip Events Conditions
12:58 AM 52.9 °F - 40.8 °F 64% 30.15 in 10.0 mi NNW 9.2 mph - N/A   Clear
1:58 AM 50.2 °F - 41.2 °F 71% 30.16 in 10.0 mi NNW 8.1 mph - N/A   Clear
2:58 AM 48.6 °F - 40.1 °F 73% 30.15 in 10.0 mi NNW 9.2 mph - N/A   Clear
3:58 AM 46.6 °F - 39.4 °F 76% 30.13 in 10.0 mi NNW 9.2 mph - N/A   Clear
4:58 AM 45.5 °F 41.3 °F 39.2 °F 79% 30.14 in 10.0 mi NNW 8.1 mph - N/A   Clear
5:58 AM 43.9 °F 39.3 °F 39.4 °F 84% 30.16 in 10.0 mi NNW 8.1 mph - N/A   Clear
6:58 AM 43.0 °F 38.2 °F 39.2 °F 86% 30.18 in 10.0 mi NNW 8.1 mph - N/A   Clear
7:58 AM 45.7 °F 40.6 °F 39.0 °F 78% 30.21 in 10.0 mi NNW 10.4 mph - N/A   Clear
8:58 AM 48.9 °F - 37.9 °F 66% 30.23 in 10.0 mi North 13.8 mph 20.7 mph N/A   Clear
9:58 AM 53.1 °F - 36.7 °F 54% 30.23 in 10.0 mi North 11.5 mph 17.3 mph N/A   Clear
10:58 AM 57.6 °F - 35.2 °F 43% 30.23 in 10.0 mi NNE 11.5 mph 19.6 mph N/A   Clear
11:58 AM 61.3 °F - 34.3 °F 36% 30.20 in 10.0 mi North 9.2 mph - N/A   Clear
12:58 PM 65.7 °F - 33.1 °F 30% 30.18 in 10.0 mi North 10.4 mph 17.3 mph N/A   Clear
1:58 PM 67.3 °F - 32.0 °F 27% 30.16 in 10.0 mi NW 9.2 mph - N/A   Partly Cloudy
2:58 PM 69.4 °F - 34.5 °F 28% 30.15 in 10.0 mi NNW 5.8 mph - N/A   Clear
3:58 PM 70.5 °F - 33.8 °F 26% 30.13 in 10.0 mi NNW 9.2 mph - N/A   Clear
4:58 PM 70.5 °F - 33.4 °F 26% 30.12 in 10.0 mi NW 9.2 mph - N/A   Clear
5:58 PM 70.0 °F - 35.4 °F 28% 30.12 in 10.0 mi Variable 5.8 mph - N/A   Clear
6:58 PM 66.0 °F - 36.5 °F 34% 30.14 in 10.0 mi NW 5.8 mph - 0.00 in Rain Light Rain
7:58 PM 60.6 °F - 39.6 °F 46% 30.15 in 10.0 mi West 3.5 mph - 0.00 in Rain Light Rain
7:59 PM 59.0 °F - 41.0 °F 51% 30.14 in 10.0 mi West 3.5 mph - N/A   Clear
8:58 PM 53.6 °F - 41.4 °F 63% 30.16 in 10.0 mi NNW 1.2 mph - 0.00 in   Clear
9:58 PM 51.4 °F - 41.4 °F 68% 30.16 in 10.0 mi NW 3.5 mph - N/A   Clear
10:58 PM 48.7 °F - 38.8 °F 69% 30.16 in 10.0 mi NW 3.5 mph - N/A   Clear
11:58 PM 45.0 °F - 40.8 °F 85% 30.16 in 10.0 mi Calm Calm - N/A   Clear